sat.trackr.live / text

‹ back to catalog

GAOFEN-9 04

NORAD 46025 · 2020-054A

PAYLOAD ACTIVE UNKNOWN

§ Identity

Operator
Country
PRC
Launch date
2020-08-06
Launch site
JSC
Launch vehicle
Mass (kg)
RCS (m²)

External: N2YO · Heavens-Above · Gunter

§ Orbital elements

Epoch: 2026-09-14T22:06:31.476960Z

Period
93.57 min
Inclination
97.2344°
Eccentricity
0.0011280
Mean motion
15.39034111 rev/d
Perigee alt
441.3 km
Apogee alt
456.7 km
Semi-major
6,827.1 km
B*
1.9692e-4
RAAN
325.7028°
Arg perigee
122.9819°
Mean anomaly
237.2512°
Rev number
34,015

§ Raw data

GAOFEN-9 041 46025U 20054A   26257.92119765  .00007546  00000+0  19692-3 0  99912 46025  97.2344 325.7028 0011280 122.9819 237.2512 15.39034111340152

JSON: /api/v1/satellites/46025 · /tle

For live sub-satellite position, see the globe view (requires WebGL).

§ Visibility from observer

Set your observer location to see the next 7 days of passes ≥ 10°. The values pass through the URL so the page stays shareable.

No JS? Fill the form by hand. The geolocation button needs JavaScript.